Tracking 30074 objects as of 14-Jan-2025
HD Live streaming from Space Station
objects crossing your sky now

YAOGAN 4 DEB

Track YAOGAN 4 DEB now!
10-day predictions


NORAD ID: 35575
Int'l Code: 2008-061B
Perigee: 639.9 km
Apogee: 952.5 km
Inclination: 97.7 °
Period: 100.6 minutes
Semi major axis: 7167 km
RCS: 0.0013 m2 (small)
Launch date: December 1, 2008
Source: People's Republic of China (PRC)
Launch site: Jiuquan Satellite Launch Center, China (JSC)

Note: This is SATELLITE DEBRIS
Your satellite tracking list
Your tracking list is empty




NASA's NSSDC Master Catalog

Two Line Element Set (TLE):
1 35575U 08061B   25010.98833439  .00003159  00000-0  94221-3 0  9994
2 35575  97.7140 206.1369 0218014 321.1154  37.4518 14.30798146832728
Source of the keplerian elements: AFSPC